CW1492 Weather Reports


Display with metric or nautical units.
time (UTC)temp
F
wind
direction
speed
MPH
gust
MPH
rain 1hr
in
rain 24hr
in
rain mn
in
humidity
%
barometer
mb
20260905103326 56 328 1.0 2.0 0.00 0.00 0.00 96 1010.4
20260905101930 58 46 0.0 0.0 0.00 0.00 0.00 82 1011.7
20260905101825 56 328 1.0 2.0 0.00 0.00 0.00 97 1010.1
20260905100331 59 46 0.0 2.0 0.00 0.00 0.00 83 1011.6
20260905100327 57 328 1.0 2.0 0.00 0.00 0.00 96 1010.2
20260905094840 59 46 2.0 3.0 0.00 0.01 0.00 84 1011.6
20260905094816 57 328 1.0 2.0 0.00 0.00 0.00 96 1010.1
20260905093351 58 14 1.0 2.0 0.00 0.01 0.00 84 1011.4
20260905093340 57 328 0.0 1.0 0.00 0.00 0.00 96 1010.0
20260905091917 58 263 0.0 1.0 0.00 0.01 0.00 79 1011.4
20260905091822 58 328 1.0 2.0 0.00 0.00 0.00 96 1009.9
20260905090419 59 263 1.0 3.0 0.00 0.01 0.00 72 1011.3
20260905090348 58 328 0.0 0.0 0.00 0.00 0.00 96 1009.9
20260905084854 57 328 1.0 2.0 0.00 0.00 0.00 96 1009.8
20260905084838 60 333 0.0 3.0 0.00 0.01 0.00 72 1011.3
20260905083406 60 343 0.0 0.0 0.00 0.01 0.00 70 1011.3
20260905083331 58 328 1.0 2.0 0.00 0.00 0.00 96 1010.0
20260905081856 58 328 1.0 2.0 0.00 0.00 0.00 96 1010.0
20260905081828 61 343 0.0 3.0 0.00 0.01 0.00 70 1011.4
20260905080422 61 47 2.0 5.0 0.00 0.01 0.00 70 1011.3
20260905080336 58 328 1.0 2.0 0.00 0.00 0.00 95 1010.1
20260905074931 62 310 1.0 5.0 0.00 0.01 0.00 68 1011.3
20260905074834 58 328 2.0 3.0 0.00 0.00 0.00 95 1010.0
20260905073329 59 328 2.0 2.0 0.00 0.00 0.00 95 1010.1
20260905071859 63 1 1.0 4.0 0.00 0.01 0.00 67 1011.6
20260905070357 63 2 0.0 1.0 0.00 0.01 0.00 66 1011.6
20260905070354 60 328 1.0 2.0 0.00 0.00 0.00 94 1010.2
20260905064848 60 328 1.0 2.0 0.00 0.00 0.00 93 1010.4
20260905064843 64 347 0.0 2.0 0.00 0.01 0.00 66 1011.8
20260905063449 64 25 3.0 4.0 0.00 0.01 0.00 66 1011.8
20260905063327 61 328 1.0 2.0 0.00 0.00 0.00 92 1010.4
20260905061852 64 25 3.0 5.0 0.00 0.01 0.00 66 1011.9
20260905061846 62 328 1.0 2.0 0.00 0.00 0.00 90 1010.5
20260905060359 63 343 1.0 8.0 0.00 0.01 0.00 67 1011.9
20260905060330 63 328 1.0 2.0 0.00 0.00 0.00 89 1010.5
20260905054858 62 73 2.0 3.0 0.00 0.01 0.00 70 1012.0
20260905054850 63 347 1.0 1.0 0.00 0.00 0.00 89 1010.5
20260905053334 63 338 0.0 2.0 0.00 0.00 0.00 89 1010.5
20260905053326 63 101 3.0 4.0 0.00 0.01 0.00 69 1012.0
20260905051909 63 95 2.0 3.0 0.00 0.01 0.00 69 1012.2
20260905051854 63 338 1.0 2.0 0.00 0.00 0.00 89 1010.6
20260905050422 63 355 1.0 2.0 0.00 0.00 0.00 89 1010.7
20260905050418 64 57 1.0 2.0 0.00 0.01 0.00 70 1012.3
20260905050336 64 57 1.0 2.0 0.00 0.01 0.00 70 1012.3
20260905044911 63 71 1.0 3.0 0.00 0.01 0.00 70 1012.3
20260905044831 62 355 1.0 2.0 0.00 0.00 0.00 93 1010.8
20260905043354 63 3 2.0 3.0 0.00 0.01 0.00 71 1012.3
20260905043331 61 355 1.0 2.0 0.00 0.00 0.00 93 1010.7
20260905041844 61 355 0.0 1.0 0.00 0.00 0.00 93 1010.6
20260905041830 63 41 1.0 3.0 0.00 0.01 0.00 70 1012.2
20260905040347 61 355 0.0 2.0 0.00 0.00 0.00 92 1010.5
20260905040340 63 40 1.0 2.0 0.00 0.01 0.00 70 1012.2
20260905034932 63 43 2.0 3.0 0.00 0.01 0.01 70 1012.2
20260905034850 63 43 2.0 3.0 0.00 0.01 0.01 70 1012.2
20260905034847 61 355 0.0 0.0 0.00 0.00 0.00 92 1010.7
20260905033423 62 70 2.0 2.0 0.00 0.01 0.01 70 1012.3
20260905033315 62 355 0.0 0.0 0.00 0.00 0.00 91 1010.7
20260905031842 63 70 1.0 2.0 0.00 0.01 0.01 69 1012.4
20260905031811 63 355 0.0 0.0 0.00 0.00 0.00 90 1010.7
20260905030348 64 40 1.0 3.0 0.00 0.01 0.01 69 1012.2
20260905030345 64 360 0.0 0.0 0.00 0.00 0.00 88 1010.6
20260905024859 64 75 1.0 3.0 0.00 0.01 0.01 70 1012.2
20260905024844 65 323 0.0 1.0 0.00 0.00 0.00 86 1010.6
20260905023335 65 319 1.0 2.0 0.00 0.00 0.00 86 1010.7
20260905023330 64 74 0.0 2.0 0.00 0.01 0.01 69 1012.2
20260905021855 64 68 0.0 1.0 0.00 0.01 0.01 67 1012.4
20260905021834 63 325 2.0 3.0 0.00 0.00 0.00 89 1010.8
20260905020336 65 68 1.0 2.0 0.00 0.01 0.01 67 1012.5
20260905020320 63 325 1.0 2.0 0.00 0.00 0.00 90 1011.0
20260905014932 65 52 2.0 3.0 0.00 0.01 0.01 67 1012.5
20260905014812 63 325 1.0 2.0 0.00 0.00 0.00 90 1011.0
20260905013403 65 355 1.0 2.0 0.00 0.01 0.01 68 1012.6
20260905013319 64 325 1.0 2.0 0.00 0.00 0.00 88 1011.0
20260905011851 66 355 0.0 0.0 0.00 0.01 0.01 64 1012.6
20260905011843 65 325 1.0 2.0 0.00 0.00 0.00 85 1011.0
20260905010417 66 333 0.0 1.0 0.00 0.00 0.00 85 1011.0
20260905010351 68 355 0.0 1.0 0.00 0.01 0.01 61 1012.5
20260905004854 69 1 2.0 3.0 0.00 0.01 0.01 59 1012.4
20260905004812 66 326 1.0 2.0 0.00 0.00 0.00 84 1010.9
20260905003428 66 318 2.0 2.0 0.00 0.00 0.00 86 1011.0
20260905003352 69 3 0.0 4.0 0.00 0.01 0.01 59 1012.4
20260905001916 66 318 1.0 2.0 0.00 0.00 0.00 88 1011.0
20260905001913 69 336 2.0 4.0 0.00 0.01 0.01 59 1012.4
20260905000337 69 14 1.0 3.0 0.00 0.01 0.01 61 1012.3
20260905000322 67 318 1.0 2.0 0.00 0.00 0.00 87 1010.9
20260904234842 69 76 2.0 3.0 0.00 0.01 0.01 62 1012.2
20260904234817 68 318 1.0 2.0 0.00 0.00 0.00 85 1010.8
20260904233439 71 70 2.0 3.0 0.00 0.01 0.01 60 1012.1
20260904233408 69 318 0.0 0.0 0.00 0.00 0.00 85 1010.5
20260904231853 72 356 0.0 2.0 0.00 0.01 0.01 56 1012.0
20260904231828 69 318 0.0 0.0 0.00 0.00 0.00 84 1010.5
20260904230354 74 345 1.0 2.0 0.00 0.01 0.01 54 1012.0
20260904230330 70 318 0.0 1.0 0.00 0.00 0.00 83 1010.4
20260904224839 74 1 1.0 3.0 0.00 0.01 0.01 53 1011.7
20260904224834 72 318 1.0 1.0 0.00 0.00 0.00 82 1010.1
20260904223350 74 359 2.0 7.0 0.00 0.01 0.01 52 1011.6
20260904223337 73 318 0.0 2.0 0.00 0.00 0.00 77 1010.0
20260904221925 74 332 2.0 4.0 0.00 0.01 0.01 52 1011.6
20260904221820 73 316 1.0 2.0 0.00 0.00 0.00 76 1010.1
20260904220414 74 359 2.0 4.0 0.00 0.01 0.01 53 1011.6
20260904220325 74 316 1.0 2.0 0.00 0.00 0.00 72 1010.1
20260904214849 75 316 0.0 1.0 0.00 0.00 0.00 73 1010.2
20260904214830 74 326 2.0 6.0 0.00 0.01 0.01 51 1011.7
20260904213428 75 18 1.0 5.0 0.00 0.01 0.01 49 1011.8
20260904213313 75 316 0.0 1.0 0.00 0.00 0.00 71 1010.4
20260904211852 77 321 0.0 3.0 0.00 0.00 0.00 65 1010.2
20260904211850 76 350 2.0 8.0 0.00 0.01 0.01 48 1011.6
20260904210438 77 303 3.0 8.0 0.00 0.01 0.01 47 1011.8
20260904210335 77 303 3.0 8.0 0.00 0.01 0.01 47 1011.8
20260904204840 77 314 5.0 9.0 0.00 0.01 0.01 46 1011.6
20260904204834 80 318 1.0 3.0 0.00 0.00 0.00 60 1010.1
20260904203406 79 316 3.0 8.0 0.00 0.01 0.01 45 1011.6
20260904203315 79 24 1.0 5.0 0.00 0.00 0.00 61 1010.0
20260904201922 77 339 1.0 5.0 0.00 0.00 0.00 63 1010.1
20260904201920 78 315 3.0 10.0 0.00 0.01 0.01 45 1011.6
20260904200404 77 356 2.0 5.0 0.00 0.01 0.01 48 1011.5
20260904200325 76 331 2.0 8.0 0.00 0.00 0.00 61 1010.0
20260904194906 77 267 3.0 9.0 0.00 0.01 0.01 46 1011.7
20260904194826 77 271 1.0 9.0 0.00 0.00 0.00 61 1010.3
20260904193356 79 302 3.0 8.0 0.00 0.01 0.01 46 1011.7
20260904193351 78 296 2.0 4.0 0.00 0.00 0.00 62 1010.1
20260904191858 77 25 3.0 7.0 0.00 0.01 0.01 47 1011.9
20260904191850 77 323 1.0 3.0 0.00 0.00 0.00 63 1010.3
20260904190404 77 226 4.0 13.0 0.00 0.01 0.01 45 1011.9
20260904190314 77 355 4.0 8.0 0.00 0.00 0.00 58 1010.3
20260904184834 76 347 1.0 4.0 0.00 0.00 0.00 63 1010.4
20260904184824 78 333 2.0 10.0 0.00 0.01 0.01 47 1011.8
20260904183340 77 271 1.0 4.0 0.00 0.00 0.00 63 1010.3
20260904183336 80 236 4.0 12.0 0.00 0.01 0.01 39 1011.9
20260904181905 80 340 3.0 10.0 0.00 0.01 0.01 43 1012.0
20260904181903 79 321 1.0 5.0 0.00 0.00 0.00 59 1010.4
20260904180411 78 261 1.0 7.0 0.00 0.00 0.00 61 1010.5
20260904180340 79 297 3.0 11.0 0.00 0.01 0.01 43 1012.0
20260904174906 79 278 4.0 10.0 0.00 0.01 0.01 44 1012.0
20260904174847 78 296 2.0 8.0 0.00 0.00 0.00 61 1010.4
20260904173414 78 355 1.0 4.0 0.00 0.00 0.00 63 1010.4
20260904173357 78 280 5.0 11.0 0.00 0.01 0.01 44 1011.9
20260904171941 78 328 1.0 8.0 0.00 0.00 0.00 61 1010.5
20260904171835 78 357 4.0 11.0 0.00 0.01 0.01 45 1012.0
20260904170406 78 339 5.0 11.0 0.00 0.01 0.01 45 1012.2
20260904170315 79 355 2.0 8.0 0.00 0.00 0.00 58 1010.5
20260904164849 78 272 8.0 12.0 0.00 0.01 0.01 44 1012.2
20260904164813 78 329 1.0 5.0 0.00 0.00 0.00 63 1010.7
20260904163330 78 316 3.0 8.0 0.00 0.01 0.01 51 1012.3
20260904163314 79 89 2.0 7.0 0.00 0.00 0.00 65 1010.7
20260904161837 78 288 2.0 6.0 0.00 0.00 0.00 65 1010.8
20260904161831 77 265 6.0 10.0 0.00 0.01 0.01 50 1012.3
20260904160345 76 348 3.0 10.0 0.00 0.01 0.01 59 1012.3
20260904160336 78 56 1.0 6.0 0.00 0.00 0.00 68 1010.8
20260904154914 77 248 1.0 4.0 0.00 0.00 0.00 69 1011.0
20260904154847 76 324 3.0 13.0 0.00 0.01 0.01 62 1012.5
20260904153443 76 336 3.0 9.0 0.00 0.01 0.01 64 1012.5
20260904153401 76 336 3.0 9.0 0.00 0.01 0.01 64 1012.5
20260904153333 76 122 3.0 4.0 0.00 0.00 0.00 74 1011.0
20260904151852 77 5 1.0 4.0 0.00 0.00 0.00 72 1011.2
20260904151825 75 339 3.0 9.0 0.00 0.01 0.01 66 1012.7
20260904150436 76 125 3.0 4.0 0.00 0.00 0.00 74 1011.3
20260904150353 74 16 4.0 10.0 0.00 0.01 0.01 70 1012.9
20260904144825 72 308 2.0 7.0 0.00 0.01 0.01 79 1012.8
20260904144823 76 128 3.0 4.0 0.00 0.00 0.00 77 1011.3
20260904143357 71 257 2.0 3.0 0.00 0.01 0.01 82 1012.8
20260904143321 74 137 1.0 3.0 0.00 0.00 0.00 79 1011.6
20260904141901 69 309 2.0 4.0 0.00 0.01 0.01 87 1012.9
20260904141855 72 82 3.0 5.0 0.00 0.00 0.00 85 1011.7
20260904140406 68 270 0.0 3.0 0.00 0.01 0.01 90 1013.0
20260904134828 66 293 0.0 2.0 0.00 0.01 0.01 91 1013.0
20260904134815 70 126 3.0 4.0 0.00 0.00 0.00 87 1011.8
20260904133358 65 293 0.0 0.0 0.00 0.01 0.01 91 1013.0
20260904133333 68 107 2.0 3.0 0.00 0.00 0.00 93 1011.7
20260904131932 65 293 0.0 1.0 0.00 0.01 0.01 91 1012.9
20260904131849 66 278 1.0 4.0 0.00 0.00 0.00 98 1011.6
20260904130412 64 318 0.0 1.0 0.00 0.01 0.01 91 1012.8
20260904130350 64 325 1.0 3.0 0.00 0.00 0.00 99 1011.6
20260904124909 62 318 0.0 2.0 0.00 0.01 0.01 91 1013.0
20260904124813 63 337 1.0 3.0 0.00 0.00 0.00 99 1011.8
20260904123333 61 39 0.0 2.0 0.00 0.01 0.01 91 1013.0
20260904123322 62 5 1.0 3.0 0.00 0.00 0.00 99 1011.7
20260904121948 60 39 0.0 1.0 0.00 0.01 0.01 91 1012.9
20260904121906 61 69 0.0 1.0 0.00 0.00 0.00 99 1011.5
20260904120346 60 39 0.0 2.0 0.00 0.01 0.01 91 1012.8
20260904120332 60 69 0.0 1.0 0.00 0.00 0.00 98 1011.3
20260904114855 60 69 0.0 2.0 0.00 0.00 0.00 99 1011.1
20260904114825 59 89 0.0 0.0 0.00 0.01 0.01 91 1012.6
20260904113426 60 30 1.0 3.0 0.00 0.00 0.00 99 1011.2
20260904113421 59 89 0.0 1.0 0.00 0.01 0.01 90 1012.7
20260904113344 60 30 1.0 3.0 0.00 0.00 0.00 99 1011.2
20260904113339 59 89 0.0 1.0 0.00 0.01 0.01 90 1012.7
20260904111913 60 355 0.0 0.0 0.00 0.00 0.00 99 1011.0
20260904111900 59 60 0.0 0.0 0.00 0.01 0.01 90 1012.6
20260904110352 59 59 0.0 0.0 0.00 0.01 0.01 90 1012.6
20260904110338 60 355 0.0 1.0 0.00 0.00 0.00 98 1011.0
20260904104828 60 60 0.0 0.0 0.01 0.01 0.01 91 1012.6
20260904104822 60 355 0.0 1.0 0.00 0.00 0.00 98 1011.1
20260904103407 59 60 0.0 0.0 0.01 0.01 0.01 91 1012.6